Regional Weather Roundup
Issued by NWS Charleston, SC

Current Version | Previous Version | Text Only | Print | Product List | Glossary Off
Versions: 1 2 3 4 5 6 7 8 9 10 11 12 13 14 15 16 17 18 19 20 21 22 23 24 25 26 27 28 29 30 31 32 33 34 35 36 37 38 39 40 41 42 43 44 45 46 47 48 49 50
000 ASUS42 KCHS 230126 RWRCHS REGIONAL WEATHER ROUNDUP NATIONAL WEATHER SERVICE CHARLESTON SC 800 PM EST WED FEB 22 2017 NOTE: "FAIR" INDICATES FEW OR NO CLOUDS BELOW 12,000 FEET WITH NO SIGNIFICANT WEATHER AND/OR OBSTRUCTIONS TO VISIBILITY. NOT ALL STATIONS ARE QUALITY CONTROLLED. USE DATA WITH CAUTION... ESPECIALLY DEWPOINT OBSERVATIONS. SCZ027-030-031-034>040-042>050-230200- ...SOUTHEAST SOUTH CAROLINA... CITY SKY/WX TMP DP RH WIND PRES REMARKS N CHARLESTON CLOUDY 65 58 78 E7 29.89S WATERFRONT PRK N/A 64 61 90 E7 29.89R MOUNT PLEASANT FAIR 63 61 94 CALM 29.90S JOHNS ISLAND FAIR 64 61 88 E8 29.89S PINOPOLIS N/A 64 59 82 VRB3 29.81R MONCKS CORNER FAIR 63 57 82 CALM 29.92R SUMMERVILLE FAIR 64 59 82 CALM 29.92R BEAUFORT MCAS CLOUDY 66 63 90 E8 29.87R BEAUFORT ARPT FAIR 64 61 88 E12 29.87R HILTON HEAD IS CLOUDY 64 63 94 VRB7G15 29.87R WALTERBORO CLOUDY 64 59 82 E6 29.91R ALLENDALE CLOUDY 66 57 72 E5 29.89R ...SOUTHERN MIDLANDS AND PEE DEE... CITY SKY/WX TMP DP RH WIND PRES REMARKS GEORGETOWN MOCLDY 61 57 88 NE3 29.93S KINGSTREE FAIR 61 54 77 E3 29.93R ORANGEBURG CLOUDY 66 56 70 E3 29.91R BARNWELL CLOUDY 68 59 73 E5 29.90R AIKEN FAIR 63 55 77 NE3 29.93S MANNING FAIR 61 48 63 MISG 29.92R COLUMBIA CLOUDY 68 54 60 SE9 29.90R SUMTER CLOUDY 65 55 67 E5 29.89R FLORENCE CLOUDY 64 55 72 SE3 29.92S MYRTLE BEACH CLEAR 63 55 77 E7 29.95R N MYRTLE BEACH CLOUDY 63 55 75 E5 29.93R $$ GAZ063-065-086>088-099>101-113>116-118-119-134>141-150-230200- ...SOUTHEAST GEORGIA... CITY SKY/WX TMP DP RH WIND PRES REMARKS SAVANNAH ARPT CLOUDY 66 59 78 E7 29.86R HUNTER AAF MOCLDY 66 65 98 E7 29.83R FORT STEWART HVY RAIN 64 63 94 CALM 29.83R FOG STATESBORO CLOUDY 64 64 100 E5 29.87R SYLVANIA CLOUDY N/A N/A N/A E5 29.89R CLAXTON DRIZZLE N/A N/A N/A CALM 29.86S ...CSRA...CENTRAL AND FAR SOUTHEAST GEORGIA... CITY SKY/WX TMP DP RH WIND PRES REMARKS THOMSON CLOUDY 64 64 100 CALM 29.93S AUGUSTA-BUSH CLOUDY 65 59 81 E3 29.88R AUGUSTA-DANIEL CLOUDY 69 55 60 NE3 29.89R SWAINSBORO CLOUDY 63 63 100 NE5 29.88S VIDALIA LGT RAIN 63 63 100 E8 29.86R EASTMAN CLOUDY 66 64 94 E8 29.87S HAZLEHURST DRIZZLE 65 65 100 E6 29.83R ALMA HVY RAIN 65 65 100 SE3 29.81R FOG WAYCROSS CLOUDY 65 65 100 CALM 29.80S JESUP LGT RAIN 64 61 88 E6 29.83R BAXLEY LGT RAIN 64 64 100 E9G16 29.83R BRUNSWICK CLOUDY 64 64 100 N5 29.81S SAINT SIMONS CLOUDY 64 62 93 CALM 29.81R $$ SCZ027-028-034-036>038-045-046-048>050-GAZ119-141-230200- ...LAKE AND SUPPLEMENTAL COASTAL OBSERVATIONS... STATION/POSITION TIME TEMP WIND PRES WAVE SWELL AIR SEA DIR/SP/G HT/PER HT/PER/DIR (UTC) (F) (DEG/KT/KT) (MB) (FT/S) (FT/S/D) WINYAH BAY 0030 63 60/ 6 1013.0R LAKE MURRAY 0020 66 CALM 1011.9 ACE BASIN NERRS 0045 66 70/ 4 1011.0S FORT PULASKI 0100 64 61 60/ 12/ 14 1011.1 SAPELO ISLAND 0100 65 80/ 8 1009.0 $$ ANZ835-935-AMZ111-154-330-350-352-354-370-450-454-472-230200- ...C-MAN AND BUOY OBSERVATIONS... STATION/POSITION TIME TEMP WIND PRES WAVE SWELL AIR SEA DIR/SP/G HT/PER HT/PER/DIR (UTC) (F) (DEG/KT/KT) (MB) (FT/S) (FT/S/D) BUOY 41004 0050 70 70 110/ 17/ 21 1011.2R 6/ 6 BUOY 41008 0050 66 63 100/ 17/ 23 1009.0R 6/ 8 2/120/12 FOLLY BEACH CMAN 0100 62 70/ 9/ 10 1012.5F CAPERS NEARSHORE 0008 62 59 100/ 6/ 10 1012.0R FRIPP NEARSHORE 0108 63 60 70/ 12/ 16 1011.1R STATION/POSITION TIME TEMP WIND PRES WAVE SWELL AIR SEA DIR/SP/G HT/PER HT/PER/DIR (UTC) (F) (DEG/KT/KT) (MB) (FT/S) (FT/S/D) 5E ST. MARYS GA 0100 63 N/A 5/ 8 FRYING PAN BUOY 0100 120/ 12/ 16 1013.6 BUOY 41025 0050 68 74 160/ 10/ 14 1015.1S 3/10 3/ 30/10 CAPE LOOKOUT NC 0100 65 130/ 7/ 8 1014.5R BUOY 41002 0050 66 70 110/ 16/ 19 1014.6R 6/10 5/ 50/10 BUOY 41010 NOT AVBL ST AUGUSTINE FL 0100 64 67 70/ 15/ 16 1008.6F $$

USA.gov is the U.S. government's official web portal to all federal, state and local government web resources and services.